Weather in Sachkhere

Georgia     42°20′17″N   43°23′48″E
В апреле 2022 года жителям России запретили посещать сайт meteo.paraplan.net по решению Генеральной прокуратуры. Аудитория сайта уменьшилась в 10 раз. Владельцы сайта не видят смысла в поддержке погодного сервера в таких условиях. Сайт будет закрыт в октябре.
temp.,
°C
wind,
m/s
gust,
m/s
humid.,
%
clouds,
%
prec.,
mm/h
press.,
hPa
HPBL,
m
4 october, tue
tue401:00+12e2294100 1.2 101442
04:00+12ene4794100 2.4 1015220
07:00+14e6158495 0.1 1014498
10:00+18e71272100 0.1 1014957
13:00+22e7953100 0.0 10141124
16:00+23ese674655 0.0 10131248
19:00+18e411645 0.0 1015434
22:00+13nw119143 0.0 101812
5 october, wed
wed501:00+13ne1191100 0.0 101922
04:00+13e118795 0.0 102023
07:00+12e228217 0.0 102034
10:00+20wsw335211 0.0 1020635
13:00+21w435835 0.0 1020929
16:00+20wsw446499 0.0 1020816
19:00+14wnw269896 0.1 1022364
22:00+15wsw2498100 0.4 1023357
6 october, thu
thu601:00+14wsw129998 0.4 1022212
04:00+14wnw119990 0.7 1023124
07:00+14wnw119982 0.3 102295
10:00+15ssw019194 0.9 1022233
13:00+17wsw128179 0.2 1021490
16:00+19w327260 0.3 1020551
19:00+14wsw249798 0.1 1022342
22:00+14wsw139899 1.3 1023316
7 october, fri
fri701:00+13wsw1098100 1.1 1023357
04:00+13e119432 1.1 102229
07:00+12e22955 0.0 102141
10:00+17e5107310 0.0 1020909
13:00+22e810482 0.0 10181466
16:00+21e810491 0.0 10171269
19:00+16e713664 0.0 1019861
22:00+15e814720 0.0 1020974
8 october, sat
sat801:00+15e8157219 0.0 10191041
04:00+15e9157390 0.0 10191010
07:00+14e91678100 0.0 1018966
10:00+18e1016613 0.0 10181120
13:00+21e1115480 0.0 10161130
16:00+20e1013490 0.0 1015923
19:00+16e915651 0.0 1015696
22:00+15e71468100 0.0 1018744